Volver al catálogo

SL-14 R/B

ActivoPO
NORAD 21305·ROCKET BODY·🇷🇺 Russia

Lanzado May 16, 1991 desde Plesetsk Cosmodrome

Loading…

Próximos Pases (próximas 24 horas)

TLE

ActualizadoSource: Space-Track

Época: Sep 14, 2026, 14:24 UTC

1 21305U 91033G   26257.60044572  .00000010  00000-0 -79766-6 0  9990
2 21305  82.5705  11.8517 0037996 185.2124 185.6021 12.54826781618215

Sigue SL-14 R/B en tiempo real con AllMySat

Download on the App Store